Regional Weather Roundup
Issued by NWS Wakefield, VA

Home | Current Version | Previous Version | Graphics & Text | Print | Product List | Glossary On
Versions: 1 2 3 4 5 6 7 8 9 10 11 12 13 14 15 16 17 18 19 20 21 22 23 24 25 26 27 28 29 30 31 32 33 34 35 36 37 38 39 40 41 42 43 44 45 46 47 48 49 50
000
ASUS41 KAKQ 261615
RWRAKQ

REGIONAL WEATHER ROUNDUP
NATIONAL WEATHER SERVICE WAKEFIELD VA
1200 PM EDT SUN MAR 26 2017

Note: "fair" indicates few or no clouds below 12,000 feet with no
significant weather and/or obstructions to visibility. * = Denotes
station may not report precipitation (e.g., rain,snow,etc.),
thunder or fog.

VAZ042-051-052>054-056-261700-
NORTHERN VIRGINIA

CITY           SKY/WX    TMP DP  RH WIND       PRES   REMARKS
WASH NATIONAL  CLOUDY    48  45  89 E12       30.35S
DULLES         CLOUDY    48  43  82 E8        30.34S
FORT BELVOIR   CLOUDY    48  44  84 CALM      30.34S
QUANTICO       CLOUDY    50  47  89 E8        30.34F
FREDERICKSBRG* CLOUDY    51  48  90 NE6       30.31S FOG
STAFFORD*      CLOUDY    48  47  99 E9        30.36F FOG
WARRENTON      CLOUDY    50  44  81 E6        30.32S HAZE
CULPEPER*      CLOUDY    50  47  88 E3        30.32F
MANASSAS*      CLOUDY    48  44  86 E8        30.34F
LEESBURG*      CLOUDY    50  46  87 SE8       30.34S
WINCHESTER     CLOUDY    45  41  87 E7        30.30F
FRONT ROYAL*   CLOUDY    52  45  76 E13       30.27F
LURAY*         CLOUDY    59  50  72 NE6       30.25F
$$

VAZ048-049-060>072-079>083-261700-
CENTRAL AND SOUTH CENTRAL VIRGINIA

CITY           SKY/WX    TMP DP  RH WIND       PRES   REMARKS
RICHMOND       CLOUDY    66  53  63 NE9       30.27F
CHESTERFIELD*  CLOUDY   N/A N/A N/A CALM      30.27F
PETERSBURG*    PTSUNNY   69  53  58 CALM      30.26F
HANOVER        CLOUDY    63  49  60 VRB7      30.29F
TAPPAHANNOCK*  CLOUDY    55  45  68 N8        30.31F
QUINTON*       CLOUDY    61  53  75 E3        30.28F
CHARLOTTSVILLE CLOUDY    56  45  66 N8        30.28F
GORDONSVILLE*  CLOUDY    53  46  77 NE6       30.29F
ORANGE*        CLOUDY    52  45  76 N8        30.31F
LOUISA*        CLOUDY    61  52  72 NE8       30.28S
BUMPASS*       CLOUDY    56  49  75 NE3       30.29S
FARMVILLE*     CLOUDY    69  56  63 SW7       30.23F
CREWE*         CLOUDY    70  56  61 S5        30.24F
FORT PICKETT*  CLOUDY    68  49  50 S3        30.25F
CHASE CITY*    PTSUNNY   69  51  54 CALM      30.24F
CLARKSVILLE*   PTSUNNY   68  54  60 S6        30.24F
SOUTH HILL*    CLOUDY    68  57  68 S6        30.30F
LAWRENCEVILLE* CLOUDY    68  55  63 S8        30.25F
EMPORIA*       CLOUDY    68  55  64 S8        30.28F
$$

VAZ088>098-261700-
SOUTHEAST VIRGINIA

CITY           SKY/WX    TMP DP  RH WIND       PRES   REMARKS
NORFOLK        CLOUDY    58  49  72 NE9       30.28F
VIRGINIA BEACH CLOUDY    59  48  67 E8        30.28F
NORFOLK NAVAL  CLOUDY    58  48  69 E13       30.30F
WEST POINT*    CLOUDY    63  51  65 NE3       30.31F
SALUDA*        CLOUDY    52  51  93 E7        30.31F
NEWPORT NEWS   CLOUDY    63  53  70 E8        30.28F
LANGLEY AFB    CLOUDY    59  52  77 NE9       30.28F
FORT EUSTIS    PTSUNNY   70  56  59 NE6       30.25F
WILLIAMSBURG*  CLOUDY    70  57  64 CALM      30.28F
HR EXEC AP*    PTSUNNY   73  55  53 S9G16     30.25F
FRANKLIN*      CLOUDY    70  54  56 SW8       30.27F
US460-WAKEFLD  PTSUNNY   70  57  63 VRB3      30.27F
$$

VAZ020-022-025-037-045-261700-
WEST CENTRAL AND SOUTHWEST VIRGINIA

CITY           SKY/WX    TMP DP  RH WIND       PRES   REMARKS
STAUNTON*      CLOUDY    60  49  68 CALM      30.25F
WAYNESBORO*    CLOUDY    58  49  73 SE8       30.24S
HOT SPRINGS VA CLOUDY    55  43  62 SE17G25   30.22F
LYNCHBURG      PTSUNNY   65  53  65 S8        30.24F
DANVILLE       CLOUDY    67  55  65 SW7       30.23F
SOUTH BOSTON*  PTSUNNY   70  51  51 S8G17     30.23F
MARTINSVILLE   CLOUDY    67  52  58 SW10      30.23F
ROANOKE        CLOUDY    65  52  62 S12G20    30.22F
BLACKSBURG     CLOUDY    60  52  74 S3        30.24S
DUBLIN*        CLOUDY    61  52  72 S16G22    30.21F
MARION*        LGT RAIN  57  54  89 CALM      30.21F
HILLSVILLE*    CLOUDY    54  53  96 S6        30.21S
RICHLANDS*     DRIZZLE   56  54  93 CALM      30.15F
WISE*          CLOUDY    61  52  72 S8        30.14F
ABINGDON*      CLOUDY    61  58  89 E5        30.15S
$$

MDZ021>025-VAZ099-100-261700-
SOUTHERN MARYLAND AND THE DELMARVA PENINSULA

CITY           SKY/WX    TMP DP  RH WIND       PRES   REMARKS
PATUXENT RIVER CLOUDY    49  49 100 E9        30.33S
BAY BRIDGE APT CLOUDY    46  43  87 E9        30.36F FOG
LEONARDTOWN    CLOUDY    48  45  87 E8        30.34F
DOVER          CLOUDY    46  46 100 E10       30.37F
GEORGETOWN     CLOUDY    46  43  89 NE13G20   30.36F FOG
EASTON         CLOUDY    48  43  81 E12       30.39S FOG
CAMBRIDGE      PTSUNNY   48  45  87 E14       30.34F
SALISBURY      CLOUDY    50  47  89 E16       30.33F FOG
OCEAN CITY     CLOUDY    47  44  90 NE12      30.34F FOG
WALLOPS ISLAND CLOUDY    50  50 100 NE18      30.33S FOG
ACCOMACK*      PTSUNNY   59  52  75 E7        30.30F
$$

NCZ012>017-030>032-261700-
NORTH CENTRAL AND EASTERN NORTH CAROLINA

CITY           SKY/WX    TMP DP  RH WIND       PRES   REMARKS
ROANOKE RAPIDS PTSUNNY   70  55  60 S10       30.26F
RALEIGH        PTSUNNY   69  54  58 SW12      30.24F
ELIZABETH CITY CLOUDY    71  55  56 S7        30.28F
AHOSKIE*         N/A     70  53  56 S6        30.27F
EDENTON*       CLOUDY    73  56  54 CALM      30.28F
CURRITUCK*     CLOUDY    72  53  50 SW9       30.28F
KILL DEVIL HLS NOT AVBL
MANTEO         CLOUDY    71  54  54 S8        30.29F
CAPE HATTERAS  CLOUDY    74  55  51 S7        30.29S
TARBORO*       NOT AVBL
GOLDSBORO      LGT RAIN  72  54  53 SE6       30.24F
WASHINGTON     CLOUDY    72  54  53 S7        30.27F
GREENVILLE     CLOUDY    73  52  46 S9        30.26F
NEW BERN       CLOUDY    74  51  44 S10G17    30.27F
WILMINGTON     CLOUDY    72  56  57 S15G22    30.26R
$$

VAZ048-261700-
ELSEWHERE

CITY           SKY/WX    TMP DP  RH WIND       PRES   REMARKS
HARRISBURG PA  CLOUDY    46  40  79 SE13      30.37S
BALTIMORE      CLOUDY    46  43  89 E13       30.36S
ANNAPOLIS      CLOUDY    47  44  90 E8        30.36S
ANDREWS AFB    CLOUDY    46  44  92 E9        30.33S
PHILADELPHIA   CLOUDY    44  37  76 E14       30.43R
HENDERSON NC   MOSUNNY   66  51  58 SW6       30.24F
GREENSBORO     PTSUNNY   71  56  58 S15       30.21F
ROCKY MOUNT    PTSUNNY   71  55  56 S7        30.26F
$$

VAZ100-261700-
MARINE

STATION/POSITION TIME  TEMP    WIND        PRES    WAVE   SWELL
                       AIR SEA DIR/SP/G            HT/PER HT/PER
                 (UTC) (F)     (DEG/KT/KT) (MB)    (FT/S) (FT/S)
CAPE MAY NJ      1548   44 44   70/ 14/ 21 1028.1R
LEWES DE         1548   43 46   90/ 12/ 20 1028.1F
OCEAN-CITY-INLET 1548   45 44   70/  5/  8 1027.9F
WACHAPREAGUE VA  1548   51 55   50/ 12/ 17 1026.0F
THOMAS POINT MD  1600   45 45   90/ 11/ 12   N/A
GOOSES REEF MD   1550   46      90/  8/ 10 1028.1F
COVE POINT MD    1548   47     110/  8/ 10 1027.8F
SOLOMONS ISLAND  1548   47 47   80/  8/  9   N/A
BISHOPS HEAD MD  1548   50 50   70/ 10/ 14 1026.8F
PINEY POINT MD   1548          100/ 10/ 11   N/A
POTOMAC MD       1550   47      70/  8/  8 1025.9F
CAMBRIDGE MD     1548   46 48   70/ 13/ 16 1026.8F
LEWISETTA VA     1548   48 49   70/  7/  8 1026.6F
RAPPAHANNOCK LGT 1548          360/  6/  6 1026.4F
STINGRAY PT      1550   48      20/  8/  8 1026.8F
YORK RVR RNG VA  1548   51      60/  8/  9 1025.3F
YORKTOWN VA      1548   51 50   60/  9/ 10 1025.5F
JAMESTOWN VA     1550   64     100/  4/  8   N/A
DOMINION TERM VA 1548   52      70/ 13/ 17 1025.5F
KIPTOPEKE VA     1548      48   60/ 10/ 13   N/A
CHES BAY BRIDGE  1548   49 47   90/ 12/ 13 1025.7F
CAPE HENRY VA    1548   48      70/  5/  8   N/A
WILLOUBY STN VA  1548   50      80/  9/ 10 1026.4F
S CRANEY ISL VA  1548   59      30/  7/  8 1025.1F
CAPE HENRY BUOY  1542      49                N/A     2/20
CAPE CHARLES BUO 1551      47                N/A     2/ 5
OFFSHORE WE BUOY 1551      51                N/A     2/ 5
64NM E OF VA BCH 1550   54 50  130/  6/  6 1026.1F   2/ 8   2/ 8
DUCK PIER NC     1548   58 48  120/ 11/ 12 1025.2F
44100 DUCK FRF   1535      51                N/A     2/ 8
44056 DUCK FRF   1530      50                N/A     2/20
OREGON INLET NC  1542   68 57  170/  6/  9 1025.8F
HATTERAS NC      1548   69 58  160/  5/  8 1025.5S
DIAMOND SHLS NC  1550   69 74  160/ 10/ 12 1025.8F   3/ 8   2/ 8
CAPE LOOKOUT NC  1600   67     150/  5/  6 1025.0F
$$



USA.gov is the U.S. government's official web portal to all federal, state and local government web resources and services.